Clinton, OK

4:48 PM CDT on July 28, 2016 (GMT -0500)
Clinton Municipal

Weather History for KCLK - April, 2014

Change the Weather History Date:

Sunday, April 13, 2014

  Actual Average (KCSM) Record (KCSM)
Temperature  
Mean Temperature 62 °F -  
Max Temperature 86 °F 68 °F 91 °F (2006)
Min Temperature 37 °F 45 °F 28 °F (1997)
Degree Days  
Heating Degree Days 2    
Growing Degree Days 12 (Base 50)    
Moisture  
Dew Point 43 °F    
Average Humidity 47    
Maximum Humidity 70    
Minimum Humidity 10    
Precipitation  
Precipitation 0.00 in - - ()
Sea Level Pressure  
Sea Level Pressure 29.61 in    
Wind  
Wind Speed 24 mph (WSW)    
Max Wind Speed 32 mph    
Max Gust Speed 39 mph    
Visibility 10 miles    
Events      
Averages and records for this station are not official NWS values.
T = Trace of Precipitation, MM = Missing Value Source: NWS Daily Summary

Daily Weather History Graph

Daily Weather History Graph

Search for Another Location

Airport or City:

Trip Planner

Search our weather history database for the weather conditions in past years. The results will help you decide how hot, cold, wet, or windy it might be!

Date:

Astronomy

Apr. 13, 2014 Rise Set
Actual Time 7:05 AM CDT 8:07 PM CDT
Civil Twilight 6:39 AM CDT 8:33 PM CDT
Nautical Twilight 6:08 AM CDT 9:04 PM CDT
Astronomical Twilight 5:36 AM CDT 9:36 PM CDT
Moon 6:49 PM CDT (4/13) 6:01 AM CDT (4/13)
Length of Visible Light 13h 53m
Length of Day
13h 01m
Waxing Gibbous, 97% of the Moon is Illuminated
Apr 13
Waxing Gibbous
Apr 15
Full
Apr 22
Last Quarter
Apr 29
New
May 6
First Quarter

Hourly Weather History & Observations

Time (CDT) Temp. Windchill Dew Point Humidity Pressure Visibility Wind Dir Wind Speed Gust Speed Precip Events Conditions
12:15 AM 73.4 °F - 53.6 °F 50% 29.58 in 10.0 mi South 27.6 mph 34.5 mph N/A   Clear
12:35 AM 73.4 °F - 53.6 °F 50% 29.58 in 10.0 mi South 26.5 mph 35.7 mph N/A   Clear
12:55 AM 73.4 °F - 53.6 °F 50% 29.58 in 10.0 mi South 25.3 mph 34.5 mph N/A   Clear
1:15 AM 73.4 °F - 55.4 °F 53% 29.58 in 10.0 mi South 25.3 mph 31.1 mph N/A   Clear
1:35 AM 73.4 °F - 55.4 °F 53% 29.58 in 10.0 mi South 25.3 mph 33.4 mph N/A   Clear
1:55 AM 73.4 °F - 55.4 °F 53% 29.57 in 10.0 mi South 25.3 mph 33.4 mph N/A   Clear
2:15 AM 73.4 °F - 55.4 °F 53% 29.57 in 10.0 mi South 23.0 mph 32.2 mph N/A   Clear
2:35 AM 73.4 °F - 55.4 °F 53% 29.57 in 10.0 mi South 26.5 mph 31.1 mph N/A   Clear
2:55 AM 73.4 °F - 55.4 °F 53% 29.56 in 10.0 mi South 21.9 mph 27.6 mph N/A   Clear
3:15 AM 73.4 °F - 53.6 °F 50% 29.56 in 10.0 mi South 23.0 mph 28.8 mph N/A   Clear
3:35 AM 73.4 °F - 53.6 °F 50% 29.56 in 10.0 mi South 17.3 mph 24.2 mph N/A   Clear
3:55 AM 73.4 °F - 53.6 °F 50% 29.55 in 10.0 mi South 18.4 mph 23.0 mph N/A   Clear
4:15 AM 71.6 °F - 53.6 °F 53% 29.55 in 10.0 mi South 17.3 mph - N/A   Clear
4:35 AM 71.6 °F - 53.6 °F 53% 29.54 in 10.0 mi South 18.4 mph 23.0 mph N/A   Clear
4:55 AM 71.6 °F - 53.6 °F 53% 29.53 in 10.0 mi South 17.3 mph - N/A   Clear
5:15 AM 69.8 °F - 53.6 °F 56% 29.52 in 10.0 mi South 18.4 mph - N/A   Clear
5:35 AM 69.8 °F - 53.6 °F 56% 29.51 in 10.0 mi South 18.4 mph - N/A   Clear
5:55 AM 71.6 °F - 51.8 °F 50% 29.51 in 10.0 mi South 19.6 mph 25.3 mph N/A   Clear
6:15 AM 69.8 °F - 51.8 °F 53% 29.52 in 10.0 mi South 17.3 mph 21.9 mph N/A   Clear
6:35 AM 69.8 °F - 51.8 °F 53% 29.52 in 10.0 mi South 17.3 mph 23.0 mph N/A   Clear
6:55 AM 69.8 °F - 50.0 °F 49% 29.52 in 10.0 mi South 16.1 mph 23.0 mph N/A   Clear
7:15 AM 69.8 °F - 50.0 °F 49% 29.52 in 10.0 mi South 20.7 mph 26.5 mph N/A   Clear
7:35 AM 69.8 °F - 51.8 °F 53% 29.52 in 10.0 mi South 23.0 mph 28.8 mph N/A   Clear
7:55 AM 69.8 °F - 53.6 °F 56% 29.52 in 10.0 mi South 25.3 mph 31.1 mph N/A   Clear
8:15 AM 69.8 °F - 55.4 °F 60% 29.52 in 10.0 mi South 27.6 mph 33.4 mph N/A   Clear
8:35 AM 69.8 °F - 55.4 °F 60% 29.52 in 10.0 mi South 25.3 mph 32.2 mph N/A   Clear
8:55 AM 69.8 °F - 57.2 °F 64% 29.52 in 10.0 mi South 24.2 mph 32.2 mph N/A   Clear
9:15 AM 71.6 °F - 57.2 °F 60% 29.52 in 10.0 mi South 24.2 mph 33.4 mph N/A   Clear
9:55 AM 71.6 °F - 55.4 °F 57% 29.52 in 10.0 mi South 20.7 mph 26.5 mph N/A   Clear
10:15 AM 75.2 °F - 53.6 °F 47% 29.52 in 10.0 mi South 19.6 mph 28.8 mph N/A   Clear
10:35 AM 78.8 °F - 48.2 °F 34% 29.52 in 10.0 mi South 19.6 mph 26.5 mph N/A   Clear
10:55 AM 78.8 °F - 41.0 °F 26% 29.52 in 10.0 mi SW 23.0 mph 31.1 mph N/A   Clear
11:15 AM 80.6 °F - 37.4 °F 21% 29.50 in 10.0 mi SW 26.5 mph 32.2 mph N/A   Clear
11:35 AM 82.4 °F - 33.8 °F 17% 29.51 in 10.0 mi SW 23.0 mph 32.2 mph N/A   Clear
11:55 AM 82.4 °F - 32.0 °F 16% 29.51 in 10.0 mi SW 20.7 mph 29.9 mph N/A   Clear
12:15 PM 84.2 °F - 32.0 °F 15% 29.51 in 10.0 mi SW 20.7 mph 28.8 mph N/A   Clear
12:35 PM 86.0 °F - 30.2 °F 13% 29.50 in 10.0 mi WSW 16.1 mph 32.2 mph N/A   Clear
1:15 PM 86.0 °F - 23.0 °F 10% 29.50 in 10.0 mi WSW 17.3 mph 24.2 mph N/A   Clear
1:35 PM 84.2 °F - 32.0 °F 15% 29.49 in 10.0 mi NW 26.5 mph 36.8 mph N/A   Clear
1:55 PM 77.0 °F - 37.4 °F 24% 29.51 in 10.0 mi NW 26.5 mph 34.5 mph N/A   Clear
2:15 PM 78.8 °F - 39.2 °F 24% 29.52 in 10.0 mi NW 23.0 mph 32.2 mph N/A   Clear
2:35 PM 80.6 °F - 41.0 °F 24% 29.52 in 10.0 mi NW 23.0 mph 32.2 mph N/A   Clear
2:55 PM 78.8 °F - 41.0 °F 26% 29.52 in 10.0 mi NNW 24.2 mph 33.4 mph N/A   Clear
3:15 PM 75.2 °F - 41.0 °F 29% 29.55 in 10.0 mi NNW 29.9 mph 38.0 mph N/A   Clear
3:35 PM 71.6 °F - 41.0 °F 33% 29.56 in 7.0 mi NW 31.1 mph 36.8 mph N/A   Clear
3:55 PM 68.0 °F - 41.0 °F 37% 29.58 in 10.0 mi NNW 31.1 mph 38.0 mph N/A   Clear
4:15 PM 66.2 °F - 41.0 °F 40% 29.59 in 10.0 mi NW 26.5 mph 36.8 mph N/A   Clear
4:35 PM 66.2 °F - 39.2 °F 37% 29.60 in 10.0 mi NW 27.6 mph 34.5 mph N/A   Clear
4:55 PM 64.4 °F - 37.4 °F 37% 29.62 in 10.0 mi NNW 28.8 mph 36.8 mph N/A   Clear
5:15 PM 62.6 °F - 37.4 °F 39% 29.62 in 10.0 mi NW 29.9 mph 39.1 mph N/A   Clear
5:35 PM 62.6 °F - 37.4 °F 39% 29.63 in 10.0 mi NNW 29.9 mph 38.0 mph N/A   Clear
5:55 PM 60.8 °F - 37.4 °F 42% 29.64 in 10.0 mi NNW 31.1 mph 36.8 mph N/A   Clear
6:15 PM 59.0 °F - 35.6 °F 42% 29.67 in 10.0 mi NNW 25.3 mph 36.8 mph N/A   Clear
6:35 PM 55.4 °F - 35.6 °F 47% 29.71 in 10.0 mi NNW 26.5 mph 39.1 mph N/A   Clear
6:55 PM 51.8 °F - 33.8 °F 50% 29.72 in 10.0 mi North 27.6 mph 35.7 mph N/A   Clear
7:15 PM 50.0 °F - 33.8 °F 54% 29.74 in 10.0 mi NNW 32.2 mph 39.1 mph N/A   Mostly Cloudy
7:35 PM 50.0 °F - 33.8 °F 54% 29.76 in 10.0 mi NNW 24.2 mph 35.7 mph N/A   Overcast
7:55 PM 46.4 °F 37.2 °F 33.8 °F 62% 29.76 in 10.0 mi NNW 29.9 mph 35.7 mph N/A   Overcast
8:15 PM 46.4 °F 37.5 °F 32.0 °F 57% 29.77 in 10.0 mi North 27.6 mph 38.0 mph N/A   Overcast
8:35 PM 44.6 °F 34.9 °F 32.0 °F 61% 29.76 in 10.0 mi North 28.8 mph 38.0 mph N/A   Mostly Cloudy
8:55 PM 42.8 °F 33.1 °F 32.0 °F 66% 29.78 in 10.0 mi North 25.3 mph 33.4 mph N/A   Scattered Clouds
9:15 PM 42.8 °F 33.3 °F 32.0 °F 66% 29.83 in 10.0 mi North 24.2 mph 32.2 mph N/A   Mostly Cloudy
9:35 PM 42.8 °F 33.3 °F 30.2 °F 61% 29.86 in 10.0 mi North 24.2 mph 31.1 mph N/A   Overcast
9:55 PM 41.0 °F 29.8 °F 28.4 °F 61% 29.85 in 10.0 mi North 29.9 mph 35.7 mph N/A   Overcast
10:15 PM 41.0 °F 31.4 °F 30.2 °F 65% 29.85 in 10.0 mi North 21.9 mph 36.8 mph N/A   Mostly Cloudy
10:35 PM 41.0 °F 30.0 °F 30.2 °F 65% 29.85 in 10.0 mi North 28.8 mph 35.7 mph N/A   Overcast
10:55 PM 39.2 °F 28.7 °F 28.4 °F 65% 29.88 in 10.0 mi North 23.0 mph 32.2 mph N/A   Mostly Cloudy
11:15 PM 39.2 °F 28.0 °F 28.4 °F 65% 29.86 in 10.0 mi North 26.5 mph 32.2 mph N/A   Overcast
11:35 PM 39.2 °F 28.3 °F 28.4 °F 65% 29.90 in 10.0 mi North 25.3 mph 35.7 mph N/A   Overcast
11:55 PM 37.4 °F 27.8 °F 28.4 °F 70% 29.94 in 10.0 mi North 17.3 mph - N/A   Overcast